Temp
32 32 31 31 31 30 30 29 28 28 27 27 26 25 25 24 24 23 23 22 22 22 22 22 22 23 24 23 23 22 22 22 22 22 22 22 22 22 21 21 21 21 21 21 21 21 20 19 19 18 19 18 18 19 19 20 20 19 18 18 17 17 18
32 32 32 31 31 30 30 29 29 28 28 27 26 25 25 24 24 24 23 23 22 22 22 22 22 23 24 24 23 22 22 22 22 22 22 22 22 22 22 21 22 22 21 21 21 21 20 20 19 19 19 19 18 20 20 21 20 19 19 18 18 18 18
33 32 32 31 31 30 30 29 29 28 28 27 26 26 25 24 24 24 24 23 22 22 22 22 22 23 24 24 23 23 22 22 22 22 22 22 22 22 22 22 22 22 21 21 20 20 21 20 20 19 19 20 20 20 21 21 20 19 18 18 18 18 18
33 32 32 32 31 30 30 29 29 28 28 27 27 26 25 25 24 24 24 23 23 22 22 22 22 23 24 23 23 23 22 22 22 22 22 22 22 22 22 22 22 22 21 21 20 20 20 20 20 20 19 20 20 21 21 21 20 20 19 19 19 18 18
33 33 32 32 31 31 30 29 29 29 28 27 27 26 25 25 24 24 24 24 23 23 23 22 23 23 23 23 23 23 23 22 22 22 22 22 22 22 22 22 22 22 21 21 21 20 20 20 20 20 20 20 20 20 21 21 20 20 19 18 18 18 18
32 33 33 32 32 31 31 30 29 29 28 27 27 26 25 25 24 24 24 24 23 23 23 23 23 23 23 23 23 23 23 23 22 22 22 22 22 22 22 22 22 22 22 22 21 21 20 20 20 20 20 20 20 20 21 21 20 20 20 19 18 18 18
34 33 33 33 32 32 31 30 30 30 29 28 27 26 25 25 25 24 24 24 24 23 23 23 23 23 24 24 23 23 23 23 23 22 22 22 22 22 22 23 23 22 22 22 21 21 21 21 20 21 20 20 20 20 21 21 21 21 20 19 19 19 18
35 34 34 33 33 32 31 31 30 30 29 28 27 27 26 25 25 25 24 24 24 23 23 23 24 24 24 24 24 23 23 23 23 23 22 22 22 22 22 22 22 22 22 22 21 21 21 21 21 21 21 20 21 20 21 21 21 21 21 20 20 19 19
35 34 33 33 32 32 31 31 30 30 29 28 28 27 26 25 25 25 24 24 24 24 23 24 24 24 24 24 24 24 23 23 23 23 23 22 22 22 22 22 22 22 22 22 21 21 21 21 21 21 21 21 21 21 21 21 21 21 20 20 20 19 19
34 33 33 32 32 31 31 30 30 30 29 28 28 28 27 26 26 25 25 24 24 24 24 24 24 24 24 24 24 24 23 23 23 23 23 23 23 23 22 22 22 22 22 21 21 21 21 21 21 21 21 21 21 21 21 21 21 21 20 20 20 20 20
33 33 33 32 32 32 31 31 30 29 29 29 28 28 27 26 26 26 25 25 25 25 25 24 24 24 25 25 24 24 24 23 23 23 23 24 23 23 23 22 21 21 22 21 21 20 21 21 21 21 21 21 21 21 21 21 21 21 21 20 20 20 20
33 33 33 33 32 32 32 31 30 30 29 29 29 28 28 27 26 26 26 26 25 25 25 25 24 24 24 25 24 24 24 24 23 24 24 24 24 24 23 22 21 21 21 21 21 20 20 21 21 21 21 20 20 21 21 21 21 21 21 21 21 20 20
33 33 33 33 33 32 32 32 31 30 30 29 29 28 28 27 27 26 26 26 26 26 26 25 25 25 24 24 24 24 25 25 24 24 24 24 24 23 23 22 22 21 21 21 21 21 20 21 21 21 21 20 20 20 21 21 21 21 21 21 21 20 20
33 32 32 32 32 32 32 32 31 31 30 29 29 28 28 27 27 27 27 27 27 27 26 26 25 25 24 24 24 24 25 25 25 25 25 25 25 24 23 22 22 22 21 21 21 20 20 21 21 21 21 20 20 20 20 20 20 21 21 20 20 20 20
33 31 31 32 32 32 32 32 31 31 30 29 29 28 28 27 27 27 27 27 27 27 27 26 26 26 25 24 24 24 25 25 25 25 25 25 25 24 23 23 22 22 22 21 21 20 20 20 20 20 20 20 19 19 19 19 19 20 20 20 20 20 20
34 33 31 31 31 31 32 31 31 30 30 29 29 28 28 28 27 27 27 27 27 27 27 27 26 26 25 25 24 24 25 25 25 25 25 24 24 24 24 23 22 22 22 21 21 20 20 19 19 19 19 19 19 18 18 18 19 19 19 19 20 20 20
35 34 32 31 31 31 32 31 30 30 30 29 29 28 28 27 27 27 27 27 27 27 27 27 26 26 26 25 25 24 24 25 25 25 25 24 24 24 23 23 22 22 21 21 21 21 20 20 19 19 19 18 18 17 17 18 18 19 19 19 19 20 20
35 34 32 32 31 31 31 31 30 30 30 29 29 28 28 27 27 27 27 27 27 27 28 27 27 26 26 25 25 24 24 25 25 24 24 24 24 23 23 22 22 21 21 21 21 21 20 20 20 19 19 18 17 17 17 17 18 18 19 19 19 19 19
36 35 33 33 32 31 31 31 31 30 30 30 29 28 28 27 27 26 27 27 27 27 27 27 27 26 26 25 25 24 24 25 24 24 23 23 23 23 22 22 21 21 21 21 20 20 20 20 20 19 19 18 18 17 17 17 17 18 18 19 19 19 19
36 35 35 34 33 32 30 30 30 30 30 30 30 29 28 27 26 26 26 26 26 27 27 27 26 26 26 25 25 24 24 24 24 23 23 23 23 22 22 21 21 20 20 20 20 20 20 20 19 19 19 19 18 17 17 17 17 18 18 18 18 19 18
35 35 35 34 33 32 31 30 30 30 30 30 29 29 28 27 26 26 26 26 26 26 27 26 26 26 25 25 24 24 24 23 23 23 23 23 22 22 21 21 21 20 20 20 19 19 19 19 19 19 19 18 18 18 17 17 17 17 17 17 18 18 18
35 35 35 35 34 32 32 32 31 30 30 30 29 28 27 27 26 25 25 26 26 26 26 26 25 25 25 25 24 24 23 23 23 23 22 22 21 21 21 20 20 20 19 19 19 19 19 19 19 18 18 18 18 18 18 17 17 17 17 17 18 18 17
35 34 35 35 34 34 33 33 33 32 31 30 29 28 27 27 26 25 25 25 25 25 26 25 25 25 24 24 24 23 23 23 23 22 22 22 21 20 20 20 20 20 19 19 18 18 18 18 18 18 18 17 17 17 17 17 17 17 17 17 17 17 16
34 34 34 34 34 34 34 34 33 32 31 30 29 28 27 26 26 25 25 25 25 25 25 25 24 24 24 23 23 23 22 22 22 22 22 21 21 20 20 19 19 19 19 18 18 18 18 18 18 18 17 17 16 16 16 16 16 16 16 16 16 16 16
34 34 34 34 34 34 34 34 33 32 31 30 29 28 27 26 26 25 25 25 25 25 24 24 23 23 23 23 22 22 22 22 22 22 21 21 20 19 19 19 19 19 18 18 18 18 18 17 17 17 17 16 16 16 16 16 16 16 16 16 16 16 16
34 34 34 34 34 34 34 33 33 31 30 29 29 28 27 26 25 25 24 24 24 24 24 23 23 23 23 22 22 22 22 21 21 21 21 20 20 19 19 19 19 19 18 18 18 17 17 17 17 17 16 16 16 16 15 15 15 15 15 15 15 16 16
33 33 34 34 34 33 32 31 31 30 29 29 28 27 26 26 25 24 24 24 23 23 23 23 23 23 22 22 21 21 21 21 21 21 20 20 20 19 19 20 20 19 18 17 17 17 17 16 16 16 15 15 15 16 16 16 15 15 15 15 15 15 15
33 32 33 33 33 32 31 29 29 29 28 28 27 26 26 26 25 24 24 23 23 23 23 23 23 22 22 22 21 21 21 21 20 20 20 20 20 20 20 19 19 19 18 17 16 16 16 16 15 15 14 14 15 15 16 16 15 14 14 14 14 15 15
32 31 30 31 30 30 30 29 28 28 27 26 26 26 25 25 24 23 23 23 23 23 23 22 22 22 22 21 21 21 21 20 20 20 20 20 21 20 20 19 19 19 17 16 16 15 15 15 15 14 15 15 15 15 15 15 14 14 15 15 14 14 15
30 31 30 28 27 27 28 27 27 26 26 25 25 25 25 24 23 23 23 23 23 22 22 22 21 21 22 21 21 21 21 21 20 21 21 21 20 20 19 19 18 17 16 16 15 15 15 15 14 14 15 15 15 15 14 14 15 15 15 15 15 15 15
27 28 28 27 26 26 25 25 25 25 25 25 25 24 24 23 23 23 23 22 22 22 21 21 21 22 22 22 22 23 23 22 21 21 21 21 20 19 19 19 18 17 16 15 15 15 15 15 15 15 15 15 15 15 15 15 15 15 15 15 15 15 15
25 27 27 26 25 25 25 25 25 25 25 24 24 24 23 23 23 22 22 21 21 21 21 22 23 23 24 24 24 24 24 23 22 21 21 20 20 20 20 19 17 16 15 15 15 15 15 15 15 15 15 15 15 15 15 15 15 15 15 15 15 15 15
23 24 25 25 24 24 24 24 24 24 24 23 23 22 22 22 22 21 21 20 21 22 23 24 24 24 24 24 24 23 23 22 21 20 19 18 18 18 18 17 16 16 15 15 15 15 15 15 15 15 15 15 15 15 15 15 15 15 15 15 15 15 15
21 21 22 23 24 24 24 24 24 23 22 22 21 21 21 21 21 20 20 21 22 24 25 25 24 24 24 23 22 21 21 20 19 18 17 17 16 16 16 16 16 16 16 16 15 16 16 16 16 15 15 15 15 15 15 15 16 16 16 16 16 16 16
21 20 19 19 21 22 22 22 22 21 21 20 20 20 21 21 20 20 21 22 23 24 24 24 24 24 23 21 20 20 18 18 18 17 17 16 16 16 16 16 16 16 16 16 15 15 16 16 16 15 15 15 15 15 15 15 16 17 17 16 16 16 16
19 20 20 19 18 19 20 20 21 21 20 20 20 20 20 20 20 21 22 23 24 24 24 24 23 22 21 20 18 17 17 17 17 17 16 16 16 16 16 16 16 16 16 16 16 16 15 15 15 15 15 15 15 16 15 16 16 17 17 16 16 16 16
18 19 19 17 17 18 19 20 20 21 21 20 21 21 21 21 22 23 23 23 23 23 23 23 22 20 19 19 18 17 17 17 16 16 16 16 16 16 16 16 16 15 16 16 16 16 15 15 15 15 15 15 15 15 16 16 16 16 16 16 16 16 16
18 18 18 17 17 18 19 20 20 20 20 20 20 20 20 20 21 22 23 23 22 22 22 21 20 20 19 18 18 19 18 17 17 17 16 16 16 16 16 16 16 15 15 15 15 15 15 15 15 15 15 15 15 15 16 16 16 15 15 16 16 16 15
Height
1437 1440 1443 1446 1448 1450 1452 1454 1458 1462 1465 1468 1470 1474 1477 1480 1482 1484 1486 1487 1489 1491 1494 1496 1499 1501 1504 1507 1510 1512 1514 1517 1519 1521 1523 1525 1527 1529 1530 1532 1533 1534 1536 1536 1538 1539 1541 1543 1543 1543 1545 1547 1547 1547 1548 1549 1550 1550 1551 1551 1552 1552 1554
1432 1436 1438 1441 1443 1444 1447 1449 1453 1456 1460 1463 1467 1471 1474 1476 1477 1479 1481 1483 1485 1488 1490 1492 1495 1497 1500 1504 1506 1509 1511 1514 1516 1518 1520 1522 1524 1526 1528 1529 1531 1532 1533 1534 1535 1537 1539 1540 1541 1541 1542 1544 1545 1545 1546 1547 1548 1549 1550 1551 1551 1551 1552
1428 1431 1434 1437 1439 1440 1442 1445 1449 1451 1455 1459 1462 1466 1469 1471 1473 1474 1477 1479 1482 1485 1487 1489 1491 1494 1497 1500 1503 1506 1508 1511 1512 1515 1517 1519 1521 1524 1525 1527 1528 1530 1531 1532 1533 1534 1536 1537 1538 1539 1540 1541 1542 1542 1544 1545 1546 1547 1548 1549 1550 1551 1551
1423 1426 1429 1433 1434 1437 1440 1443 1446 1448 1451 1455 1458 1461 1464 1466 1469 1472 1474 1476 1478 1481 1483 1485 1488 1490 1493 1496 1499 1502 1505 1507 1509 1511 1514 1516 1519 1521 1523 1524 1525 1527 1528 1529 1531 1532 1533 1534 1536 1537 1538 1538 1539 1540 1542 1543 1544 1545 1546 1547 1548 1549 1550
1418 1422 1424 1427 1429 1434 1437 1440 1444 1446 1448 1452 1454 1457 1459 1463 1466 1468 1471 1473 1475 1477 1479 1482 1484 1487 1490 1493 1496 1499 1501 1504 1506 1508 1511 1513 1516 1518 1520 1521 1522 1523 1525 1526 1528 1529 1530 1532 1533 1535 1535 1536 1537 1538 1540 1541 1542 1543 1545 1545 1546 1547 1548
1413 1416 1417 1419 1422 1426 1431 1436 1440 1443 1447 1450 1452 1454 1457 1460 1463 1465 1467 1470 1472 1474 1477 1479 1481 1484 1487 1489 1492 1495 1498 1500 1503 1505 1508 1510 1513 1515 1516 1518 1519 1520 1521 1523 1525 1526 1527 1529 1530 1531 1532 1534 1535 1536 1537 1539 1540 1541 1542 1543 1544 1545 1546
1407 1410 1411 1413 1417 1421 1426 1431 1437 1442 1446 1448 1451 1453 1455 1457 1459 1461 1464 1466 1468 1471 1473 1475 1478 1480 1483 1486 1489 1492 1494 1497 1500 1502 1505 1507 1509 1511 1512 1514 1516 1517 1518 1520 1522 1523 1525 1526 1527 1528 1530 1531 1533 1533 1534 1536 1537 1538 1540 1541 1542 1543 1544
1401 1403 1406 1409 1414 1419 1423 1427 1432 1438 1443 1447 1449 1450 1451 1453 1455 1457 1460 1461 1464 1467 1469 1471 1473 1476 1479 1482 1485 1488 1490 1493 1496 1499 1502 1504 1506 1507 1509 1511 1512 1514 1516 1517 1519 1520 1521 1523 1524 1525 1527 1528 1529 1530 1531 1533 1534 1535 1537 1538 1539 1540 1541
1396 1399 1404 1408 1413 1417 1420 1422 1425 1430 1437 1443 1445 1446 1448 1450 1451 1453 1455 1457 1460 1462 1464 1467 1470 1473 1476 1479 1481 1484 1487 1490 1492 1495 1498 1500 1502 1503 1505 1507 1509 1511 1513 1514 1516 1517 1518 1519 1520 1522 1523 1524 1525 1526 1528 1529 1531 1532 1533 1534 1536 1537 1537
1394 1398 1402 1407 1412 1414 1415 1418 1421 1424 1429 1435 1440 1443 1445 1447 1448 1450 1452 1454 1456 1458 1460 1464 1467 1470 1472 1475 1478 1481 1484 1486 1489 1491 1494 1496 1497 1499 1501 1504 1506 1508 1510 1511 1512 1513 1514 1515 1516 1518 1519 1520 1521 1522 1523 1525 1527 1528 1530 1531 1532 1533 1534
1392 1398 1401 1405 1408 1410 1412 1416 1418 1420 1424 1429 1434 1438 1441 1443 1446 1447 1448 1450 1452 1454 1457 1460 1464 1466 1468 1472 1475 1478 1480 1483 1485 1487 1489 1492 1493 1495 1498 1501 1503 1504 1506 1508 1509 1509 1510 1511 1512 1513 1514 1515 1516 1518 1519 1520 1522 1524 1525 1527 1529 1530 1531
1391 1394 1398 1401 1404 1407 1410 1412 1415 1417 1421 1424 1429 1433 1436 1439 1442 1444 1446 1448 1450 1452 1454 1457 1461 1463 1465 1468 1471 1473 1476 1479 1481 1483 1485 1488 1490 1492 1495 1498 1500 1500 1502 1503 1505 1506 1507 1507 1508 1509 1510 1511 1512 1514 1515 1516 1517 1519 1521 1523 1525 1527 1528
1390 1391 1394 1397 1400 1404 1407 1410 1413 1415 1417 1420 1424 1429 1432 1434 1438 1441 1443 1446 1448 1450 1452 1454 1457 1459 1461 1463 1466 1469 1472 1474 1477 1479 1481 1484 1486 1489 1492 1494 1496 1497 1498 1499 1501 1503 1503 1503 1505 1506 1507 1508 1509 1510 1511 1512 1513 1515 1517 1519 1521 1523 1525
1389 1391 1393 1396 1399 1403 1405 1408 1410 1412 1415 1418 1422 1426 1429 1432 1435 1438 1441 1443 1446 1448 1449 1451 1454 1456 1458 1460 1463 1465 1467 1470 1473 1476 1479 1481 1483 1486 1488 1491 1493 1494 1495 1496 1498 1499 1500 1500 1502 1503 1503 1504 1505 1507 1508 1509 1510 1512 1514 1516 1518 1521 1523
1389 1391 1392 1394 1398 1401 1403 1406 1408 1410 1413 1416 1419 1423 1426 1429 1432 1435 1438 1440 1443 1445 1446 1448 1450 1453 1455 1457 1459 1462 1464 1467 1470 1473 1476 1478 1480 1482 1485 1487 1490 1492 1493 1494 1495 1497 1498 1499 1500 1500 1501 1501 1502 1504 1505 1506 1508 1509 1511 1514 1517 1519 1520
1388 1390 1392 1395 1397 1399 1402 1404 1405 1408 1411 1414 1417 1420 1422 1425 1427 1430 1433 1436 1439 1442 1443 1445 1447 1450 1451 1453 1456 1459 1461 1464 1467 1469 1472 1474 1476 1479 1481 1484 1487 1489 1490 1491 1492 1494 1496 1498 1498 1497 1498 1499 1500 1502 1503 1503 1506 1507 1509 1513 1516 1516 1516
1384 1386 1389 1393 1395 1397 1400 1401 1403 1405 1408 1410 1413 1416 1419 1421 1423 1427 1430 1432 1435 1438 1440 1441 1444 1446 1448 1450 1453 1456 1458 1461 1463 1466 1468 1471 1473 1475 1478 1481 1483 1485 1488 1489 1490 1491 1493 1495 1495 1495 1495 1496 1498 1500 1500 1501 1503 1503 1504 1508 1512 1513 1513
1380 1382 1385 1388 1390 1392 1395 1397 1399 1401 1404 1406 1409 1412 1416 1418 1421 1423 1425 1427 1430 1434 1437 1438 1439 1443 1445 1447 1450 1453 1455 1458 1460 1462 1465 1467 1470 1472 1475 1478 1480 1482 1484 1486 1488 1489 1490 1492 1493 1493 1493 1493 1494 1496 1497 1499 1500 1500 1502 1505 1508 1510 1511
1376 1378 1380 1383 1385 1387 1389 1391 1394 1396 1399 1402 1405 1407 1410 1414 1417 1419 1421 1423 1427 1431 1434 1435 1436 1439 1442 1445 1447 1449 1452 1454 1456 1459 1462 1464 1467 1470 1472 1475 1477 1479 1481 1483 1485 1486 1487 1489 1491 1491 1492 1492 1492 1493 1494 1496 1498 1498 1501 1504 1506 1508 1509
1373 1374 1376 1379 1381 1382 1385 1387 1390 1392 1394 1397 1400 1402 1406 1410 1414 1417 1420 1421 1424 1428 1431 1432 1433 1436 1439 1441 1444 1446 1449 1451 1453 1456 1459 1462 1464 1467 1469 1471 1473 1475 1478 1480 1482 1483 1484 1486 1488 1489 1489 1490 1491 1491 1492 1493 1495 1496 1498 1501 1503 1506 1507
1371 1372 1374 1375 1377 1379 1382 1384 1386 1388 1390 1393 1396 1399 1403 1406 1410 1414 1418 1419 1421 1424 1427 1428 1429 1433 1436 1438 1441 1443 1446 1448 1451 1454 1457 1459 1462 1464 1466 1468 1470 1473 1475 1477 1479 1480 1481 1483 1485 1486 1487 1488 1489 1489 1490 1491 1492 1494 1496 1498 1500 1503 1505
1368 1369 1371 1373 1375 1377 1377 1379 1381 1383 1386 1389 1393 1396 1399 1402 1406 1411 1414 1416 1418 1421 1423 1425 1426 1429 1432 1435 1438 1440 1443 1446 1449 1452 1454 1457 1459 1461 1463 1466 1468 1470 1472 1474 1476 1476 1477 1479 1481 1482 1484 1485 1486 1487 1488 1488 1490 1492 1494 1496 1498 1501 1502
1365 1367 1368 1370 1373 1374 1374 1375 1377 1379 1381 1384 1388 1391 1394 1398 1402 1407 1410 1412 1414 1417 1419 1421 1423 1426 1429 1432 1435 1438 1441 1444 1447 1449 1452 1455 1457 1459 1461 1464 1466 1468 1470 1472 1474 1474 1474 1476 1477 1479 1481 1482 1483 1485 1485 1486 1487 1489 1490 1492 1495 1497 1499
1363 1365 1366 1367 1370 1370 1370 1370 1371 1374 1376 1379 1382 1385 1389 1393 1398 1403 1406 1407 1410 1413 1415 1417 1420 1424 1427 1430 1433 1436 1439 1443 1445 1448 1450 1453 1455 1457 1460 1462 1464 1466 1468 1470 1472 1472 1472 1473 1475 1477 1478 1479 1480 1482 1482 1483 1484 1485 1486 1488 1491 1493 1495
1360 1361 1363 1364 1365 1366 1365 1365 1366 1369 1371 1374 1378 1381 1384 1388 1394 1399 1402 1403 1405 1409 1411 1414 1418 1421 1425 1429 1432 1435 1438 1441 1443 1446 1448 1451 1453 1455 1457 1459 1462 1464 1466 1468 1470 1471 1471 1471 1473 1474 1475 1476 1478 1479 1480 1480 1482 1483 1484 1486 1488 1490 1492
1355 1356 1357 1359 1359 1359 1359 1360 1361 1364 1367 1370 1374 1376 1380 1385 1390 1396 1398 1400 1402 1404 1407 1411 1415 1419 1423 1427 1430 1433 1436 1438 1441 1444 1446 1449 1451 1453 1455 1456 1459 1461 1462 1465 1468 1469 1469 1470 1471 1472 1472 1474 1475 1476 1477 1478 1480 1481 1483 1485 1487 1488 1490
1351 1350 1351 1353 1354 1354 1354 1355 1358 1361 1365 1368 1371 1374 1378 1382 1388 1393 1397 1398 1399 1401 1404 1408 1413 1417 1422 1425 1428 1431 1434 1437 1440 1442 1445 1448 1449 1451 1453 1455 1456 1458 1460 1462 1465 1467 1468 1469 1470 1470 1471 1472 1473 1474 1475 1477 1477 1479 1481 1483 1485 1486 1488
1348 1348 1350 1350 1350 1350 1352 1354 1358 1362 1365 1368 1371 1373 1376 1380 1385 1390 1394 1396 1396 1398 1401 1406 1410 1414 1418 1422 1425 1429 1432 1435 1438 1442 1445 1446 1448 1450 1452 1453 1454 1456 1458 1461 1462 1464 1466 1467 1468 1469 1470 1471 1471 1472 1474 1475 1475 1477 1479 1480 1482 1484 1486
1348 1349 1352 1351 1349 1349 1350 1353 1357 1361 1364 1368 1370 1372 1375 1379 1383 1388 1393 1395 1395 1396 1400 1404 1408 1412 1416 1419 1423 1426 1429 1433 1436 1440 1442 1444 1446 1448 1450 1451 1453 1454 1457 1459 1460 1462 1464 1466 1467 1468 1469 1469 1470 1471 1472 1473 1474 1475 1476 1478 1480 1482 1484
1351 1347 1350 1353 1353 1351 1350 1352 1356 1360 1364 1367 1369 1372 1375 1378 1383 1388 1392 1394 1394 1394 1397 1401 1405 1409 1413 1417 1420 1423 1427 1431 1434 1437 1439 1441 1443 1445 1447 1449 1452 1454 1456 1458 1459 1461 1463 1464 1466 1467 1467 1468 1469 1470 1471 1471 1472 1473 1475 1476 1478 1480 1482
1352 1346 1346 1350 1353 1353 1353 1355 1357 1360 1364 1367 1369 1372 1375 1378 1382 1386 1390 1391 1392 1392 1394 1399 1403 1407 1411 1414 1418 1422 1426 1429 1432 1434 1436 1438 1440 1441 1443 1447 1450 1453 1455 1457 1459 1460 1462 1463 1464 1465 1466 1467 1467 1468 1469 1470 1471 1472 1473 1475 1477 1478 1480
1355 1350 1348 1349 1351 1353 1355 1357 1360 1362 1364 1366 1369 1371 1375 1379 1381 1383 1386 1389 1390 1391 1393 1397 1402 1407 1411 1414 1418 1422 1425 1428 1430 1432 1434 1436 1436 1437 1439 1443 1447 1451 1455 1457 1458 1460 1461 1462 1463 1463 1464 1465 1466 1467 1468 1468 1469 1470 1471 1473 1474 1476 1477
1358 1354 1351 1350 1351 1353 1355 1358 1361 1363 1364 1366 1368 1371 1375 1378 1381 1383 1385 1388 1390 1392 1395 1398 1403 1407 1412 1415 1419 1422 1424 1426 1429 1431 1434 1435 1436 1437 1439 1441 1444 1449 1453 1455 1457 1459 1460 1461 1461 1462 1463 1464 1465 1466 1467 1467 1468 1468 1469 1471 1472 1473 1474
1359 1357 1357 1355 1352 1352 1355 1358 1360 1362 1365 1367 1369 1372 1375 1379 1382 1385 1387 1389 1390 1393 1396 1400 1404 1408 1412 1415 1418 1420 1424 1426 1428 1430 1433 1435 1437 1439 1440 1442 1444 1448 1451 1453 1455 1456 1458 1459 1459 1460 1462 1463 1464 1465 1465 1466 1467 1467 1468 1469 1470 1471 1472
1359 1360 1362 1361 1357 1355 1356 1359 1361 1364 1367 1369 1371 1374 1377 1381 1385 1386 1387 1388 1391 1394 1397 1401 1405 1408 1412 1415 1418 1421 1424 1427 1428 1429 1432 1434 1436 1438 1440 1442 1444 1446 1449 1451 1453 1454 1456 1457 1458 1459 1460 1462 1463 1464 1465 1465 1466 1466 1467 1468 1468 1469 1470
1362 1362 1364 1367 1366 1364 1363 1364 1365 1367 1369 1372 1376 1379 1381 1384 1385 1386 1387 1389 1392 1395 1398 1402 1405 1408 1412 1415 1419 1422 1424 1426 1427 1429 1432 1434 1436 1438 1439 1441 1443 1445 1448 1450 1452 1453 1454 1456 1456 1458 1459 1461 1462 1463 1464 1465 1465 1466 1467 1467 1468 1468 1469
1369 1367 1369 1372 1372 1370 1369 1369 1370 1371 1373 1377 1380 1382 1383 1384 1385 1386 1388 1391 1394 1397 1400 1402 1405 1409 1412 1416 1419 1421 1423 1425 1427 1430 1432 1435 1437 1438 1440 1441 1443 1445 1447 1449 1450 1452 1453 1454 1456 1457 1458 1460 1461 1462 1463 1464 1464 1465 1466 1466 1467 1468 1468
1377 1376 1376 1377 1376 1374 1373 1372 1373 1375 1377 1379 1381 1383 1384 1385 1386 1388 1390 1393 1396 1399 1401 1404 1406 1410 1413 1416 1418 1419 1421 1424 1427 1429 1432 1434 1436 1438 1440 1441 1442 1444 1446 1447 1449 1450 1452 1453 1455 1456 1458 1459 1460 1461 1462 1463 1463 1464 1464 1465 1466 1467 1468
Wind_Speed
29 28 30 30 33 35 37 40 40 39 41 43 44 44 43 42 40 39 39 39 40 39 38 37 37 38 37 36 34 32 31 30 29 29 27 26 25 23 23 23 22 21 20 20 20 19 19 18 18 18 17 18 19 19 16 13 13 17 19 21 19 15 12
32 30 31 31 33 37 38 40 41 41 42 42 44 45 43 43 43 42 41 41 41 40 39 38 38 39 39 38 36 34 33 31 30 29 28 27 26 25 24 23 23 23 22 21 21 20 20 21 21 20 19 19 19 17 13 12 14 17 18 19 20 18 14
34 31 32 32 34 38 40 40 40 41 42 41 44 45 45 45 45 45 44 42 42 41 40 40 39 39 40 39 37 36 35 33 32 31 30 29 27 26 25 25 24 24 24 24 23 22 22 23 22 21 21 22 21 18 13 12 14 17 18 18 18 18 16
36 33 34 33 34 36 37 38 39 40 41 40 42 46 47 47 46 46 45 43 43 42 41 41 40 39 40 40 39 37 36 35 34 33 31 30 28 27 26 26 26 26 26 26 25 24 24 24 23 23 24 24 22 19 16 14 15 17 19 18 17 18 17
38 36 36 34 32 32 33 34 36 37 38 39 41 45 47 48 47 46 45 44 43 43 43 41 40 39 40 41 40 38 38 37 35 34 32 31 29 28 27 28 28 28 28 28 27 26 26 25 24 24 25 25 23 21 18 16 16 17 19 19 18 18 18
41 38 37 35 32 32 33 34 34 35 36 38 39 43 45 46 47 47 46 45 44 43 43 42 40 39 40 41 41 39 38 38 36 35 33 32 31 30 30 30 30 30 30 30 28 28 28 27 26 26 26 25 24 23 21 19 18 18 19 20 20 19 18
38 35 32 33 31 30 31 31 31 32 34 36 37 39 42 43 44 45 44 45 45 44 43 43 41 40 40 40 41 40 39 38 38 36 34 33 32 32 32 32 32 32 32 31 30 30 30 29 29 28 27 26 25 24 23 21 21 20 19 21 22 21 20
32 34 31 33 31 27 28 29 30 29 31 35 36 38 40 42 43 44 44 45 45 44 43 44 42 41 40 40 40 40 40 39 38 37 36 34 34 34 34 34 34 33 33 32 32 31 31 31 31 30 29 27 26 26 25 24 23 22 21 21 21 22 22
34 37 34 32 28 25 26 30 33 32 33 37 38 39 41 41 42 44 44 45 45 44 44 43 42 41 40 40 40 40 39 39 38 38 37 36 36 36 35 35 34 34 34 33 33 33 33 33 33 32 31 30 29 28 27 26 25 24 23 21 21 22 23
34 37 34 32 29 28 29 30 33 35 37 41 42 41 41 41 42 43 44 44 44 45 45 43 41 41 40 40 40 40 39 39 38 37 37 37 38 37 36 35 35 35 34 34 34 35 36 36 36 35 34 33 32 31 30 28 27 26 26 23 21 22 22
36 35 33 34 34 34 33 31 34 38 41 44 44 42 41 42 42 42 43 44 42 43 43 42 40 40 40 40 40 40 40 39 39 38 38 38 38 38 37 35 34 34 34 34 36 37 38 37 37 37 37 36 35 34 33 31 29 28 28 26 23 22 23
38 35 32 34 35 36 34 32 34 38 41 43 44 43 43 44 43 42 42 42 41 40 41 40 39 39 40 41 41 41 41 40 40 40 39 38 38 37 37 35 33 33 33 34 35 36 38 39 38 38 38 38 37 37 35 33 31 29 29 28 25 23 24
29 34 33 32 33 34 33 32 34 37 39 42 43 43 43 44 43 41 41 41 40 38 39 40 39 39 39 40 41 41 41 41 41 40 39 38 37 37 35 34 34 33 34 34 32 32 36 39 39 38 39 39 39 38 37 36 34 31 30 30 28 25 25
22 30 30 29 29 29 29 29 32 36 37 39 41 42 41 42 43 41 40 41 40 38 38 40 40 40 40 39 39 40 40 40 40 39 38 37 37 37 36 34 34 33 35 35 33 32 35 37 38 38 38 40 40 39 39 38 36 33 32 32 29 26 26
16 20 23 26 28 29 28 27 28 32 35 35 38 40 39 39 41 40 39 41 41 38 38 39 41 41 41 39 38 39 39 39 38 37 37 37 37 37 36 35 34 34 34 35 34 33 34 34 34 36 37 39 40 39 39 40 38 35 34 33 30 28 28
18 15 16 21 25 26 26 27 27 29 32 33 36 39 40 39 40 41 39 40 42 40 38 39 41 41 42 41 39 38 37 37 37 36 36 37 37 36 36 36 34 34 34 34 33 33 32 30 30 33 35 37 38 39 39 39 38 37 35 32 30 30 30
27 24 22 22 24 25 24 26 29 30 31 34 36 39 40 40 40 41 39 38 42 42 39 39 41 42 42 42 39 38 37 35 35 36 36 37 36 36 36 35 35 34 33 33 32 33 32 30 30 32 32 33 34 36 39 39 38 40 39 33 30 31 32
27 28 31 29 25 25 26 27 30 32 34 36 37 38 41 40 40 41 40 39 41 42 39 39 42 42 42 42 40 39 38 36 36 35 35 35 35 35 35 34 34 34 33 33 32 32 31 30 30 32 32 30 29 30 35 37 38 41 40 33 30 32 33
27 25 30 32 29 29 30 31 33 33 33 35 36 38 40 41 41 42 42 41 41 41 39 39 42 43 42 42 40 39 39 37 36 34 33 32 31 32 32 32 32 32 32 31 30 31 31 30 29 30 31 31 29 28 30 32 35 39 39 33 30 31 33
27 27 26 30 35 35 32 33 34 31 30 31 32 34 37 39 40 40 40 39 39 40 39 39 41 43 43 42 40 39 39 37 36 33 31 30 29 29 29 29 29 30 29 27 27 29 31 31 31 30 30 31 31 30 30 30 31 35 35 31 30 32 33
26 27 25 24 32 37 35 33 33 31 28 28 29 31 34 38 38 38 39 39 39 41 40 39 40 42 42 42 40 39 38 36 34 31 29 29 28 27 28 29 29 29 28 27 26 27 30 31 32 31 31 31 32 33 33 33 32 32 30 28 29 33 32
26 25 24 22 25 31 32 30 31 30 28 28 29 30 32 35 36 36 38 39 40 41 41 39 40 41 42 42 41 40 38 36 33 30 29 29 27 27 28 29 28 28 27 26 25 25 27 29 30 30 30 30 32 33 34 34 32 30 27 25 28 31 28
32 30 29 28 28 28 29 29 29 29 28 27 29 30 30 33 35 35 37 40 40 41 41 40 40 41 41 42 40 39 37 35 32 30 30 29 27 27 27 26 27 27 25 23 22 24 27 28 28 28 27 27 29 30 32 33 31 30 27 25 28 29 26
36 37 36 34 35 36 34 34 32 31 31 30 29 30 30 33 35 36 38 41 42 42 42 41 40 40 40 39 38 36 34 32 31 30 29 28 27 26 24 22 23 23 22 20 18 20 24 26 25 26 25 24 23 25 29 31 30 29 28 27 31 33 29
38 40 39 38 40 40 37 37 35 33 33 33 31 31 32 33 36 39 40 42 43 43 42 40 37 38 39 35 32 31 30 29 30 29 27 25 24 23 21 21 20 20 21 21 20 20 22 23 23 25 27 24 21 23 27 30 29 30 29 28 31 33 30
32 35 37 38 40 40 36 36 36 35 35 33 32 32 34 35 38 40 41 41 42 43 43 39 34 33 34 30 28 28 28 28 30 29 25 23 22 22 21 19 19 20 21 21 22 23 23 22 21 22 22 20 18 20 23 25 27 29 28 27 29 29 25
18 18 25 31 30 26 28 32 33 33 33 31 31 33 35 37 38 39 40 40 40 40 41 38 32 31 31 29 28 28 27 27 28 28 24 21 21 21 19 16 16 18 19 20 21 22 23 22 19 16 14 13 14 16 17 18 21 23 22 21 22 22 22
16 12 16 23 23 21 24 25 26 28 28 28 31 34 36 38 38 38 39 39 38 38 38 36 34 34 33 31 28 27 26 25 25 25 23 21 19 18 16 16 16 16 17 19 19 19 20 20 17 14 13 12 13 13 13 14 15 16 16 16 16 18 20
17 7 6 8 17 22 23 23 24 26 26 26 29 33 35 37 38 38 37 37 36 37 37 36 36 36 34 32 29 27 26 26 25 25 24 20 16 15 16 16 15 14 14 16 16 15 16 17 15 13 12 10 10 12 14 16 16 15 15 15 16 17 18
14 17 10 8 13 16 19 24 25 25 25 27 29 32 34 35 37 36 35 35 36 38 39 38 38 37 35 32 30 28 27 27 27 25 21 18 16 16 16 15 14 13 14 15 14 14 14 14 13 12 10 11 13 16 19 21 20 18 17 16 16 16 17
7 14 14 13 13 14 17 21 24 25 26 27 30 32 32 34 37 37 36 37 38 40 40 40 39 37 34 32 30 27 26 25 25 23 19 17 16 15 14 13 13 14 15 14 12 12 12 12 12 13 14 16 19 21 21 21 19 17 17 16 16 17 17
2 9 14 15 16 17 19 21 23 25 26 28 30 32 32 35 39 40 40 39 38 39 39 38 36 34 31 28 26 24 22 22 22 22 19 17 16 14 13 13 13 13 13 12 12 13 13 13 13 15 17 19 20 20 20 19 17 15 15 16 17 17 18
6 5 12 17 20 20 21 23 25 26 29 30 31 32 35 38 40 39 37 35 34 35 35 34 32 30 28 26 23 21 20 21 21 20 19 17 15 15 15 14 13 12 12 12 14 14 15 15 14 16 18 18 19 19 17 16 16 16 16 18 18 19 20
4 2 3 11 20 24 25 27 28 30 31 31 31 34 39 39 35 31 30 31 32 33 33 31 29 28 26 25 23 20 20 20 19 18 18 17 15 15 14 13 11 12 12 13 15 16 15 15 16 18 18 18 18 18 17 15 14 15 16 16 17 18 20
9 8 3 5 15 23 27 29 30 29 29 28 29 34 36 34 30 29 31 33 32 30 29 28 26 25 24 23 21 19 18 17 15 14 15 17 17 16 15 14 14 15 16 16 17 18 17 16 17 18 17 16 18 19 16 13 12 11 12 12 14 16 18
10 11 11 11 15 21 25 27 28 28 29 29 30 31 31 29 29 29 29 28 25 24 24 24 23 23 22 21 19 18 17 15 13 12 12 15 18 18 17 17 18 18 19 18 18 19 18 16 16 17 16 17 19 18 14 12 10 9 10 11 12 13 13
12 15 16 16 18 21 24 27 29 29 30 29 29 28 28 26 26 25 24 22 21 20 20 20 22 21 21 20 18 16 16 16 13 11 11 12 16 18 19 19 20 20 19 19 18 18 17 15 14 15 16 17 18 16 13 12 12 11 11 11 11 10 9
13 17 19 18 19 22 25 27 28 28 28 27 26 26 25 23 23 22 21 20 20 19 18 19 19 19 19 19 16 12 15 16 14 14 14 13 15 18 21 20 20 20 19 18 17 16 16 16 15 15 16 16 15 14 12 11 12 12 12 11 11 11 9
Wind_Direction
197 194 195 199 199 201 203 205 206 205 206 206 206 205 202 202 202 201 203 205 205 205 205 205 206 209 214 214 214 214 213 213 213 213 215 216 216 215 212 214 218 221 223 224 224 221 215 208 210 220 220 211 220 229 226 223 209 199 198 197 205 218 210
190 191 194 197 198 200 202 204 205 203 205 206 206 206 203 202 202 202 203 205 205 206 205 205 206 208 213 215 213 214 213 213 214 214 216 217 217 217 216 217 220 221 221 222 224 225 222 218 216 221 228 227 229 232 224 218 216 211 210 207 210 220 214
185 187 190 197 198 200 202 203 204 203 203 204 205 206 205 203 203 203 204 205 205 206 206 206 207 209 212 214 213 214 214 214 215 215 216 218 218 217 218 219 221 223 221 219 222 225 225 225 222 221 228 231 233 235 230 220 217 215 217 218 215 219 219
183 186 187 195 196 199 204 203 204 204 202 203 204 205 206 205 205 205 204 205 205 205 207 207 208 210 211 213 213 213 214 215 215 217 218 219 220 219 218 219 221 223 223 221 220 223 226 227 225 221 223 230 235 239 236 225 220 217 218 222 221 220 224
180 187 187 191 192 196 204 204 204 205 202 202 204 206 207 206 206 206 205 206 207 207 208 209 210 211 211 212 213 212 214 215 216 218 218 219 220 221 218 219 221 223 224 225 222 222 225 226 227 224 222 227 234 237 235 227 223 221 217 221 225 223 224
182 185 182 182 187 194 202 205 206 206 204 203 205 206 206 205 205 204 204 205 207 208 208 209 210 211 211 211 212 213 214 215 217 218 219 219 220 222 221 218 220 223 225 228 225 223 226 226 229 230 227 228 231 234 234 227 222 224 219 218 224 226 224
183 179 176 178 185 191 195 200 203 206 207 205 205 206 203 202 202 201 201 204 206 206 208 210 211 211 211 212 212 213 214 215 217 218 218 219 220 222 223 220 221 224 226 229 229 227 228 228 230 234 233 231 232 234 235 228 221 223 221 218 224 227 225
173 172 181 183 185 186 188 193 197 203 211 210 207 205 201 199 200 199 198 202 204 204 207 211 213 212 211 212 212 213 215 216 217 218 218 218 220 222 223 222 222 224 225 227 229 231 231 230 232 236 236 235 236 236 235 230 222 221 221 219 223 224 223
172 175 188 184 180 183 187 193 196 201 211 213 210 207 204 200 199 198 197 199 202 204 208 212 213 213 212 211 212 213 213 215 217 219 219 219 221 223 223 224 224 224 224 225 226 229 232 234 235 237 238 238 238 236 235 232 225 221 220 221 223 221 219
174 175 181 177 177 184 191 196 197 200 206 211 211 208 205 203 201 200 198 198 200 204 209 210 210 213 213 211 212 212 212 213 216 219 220 222 224 225 225 225 225 225 225 224 224 226 231 236 236 236 237 239 237 235 235 234 228 222 221 223 225 221 217
164 172 174 174 178 183 192 197 197 200 204 206 207 207 206 205 203 202 201 199 198 202 206 206 206 210 214 214 213 212 212 213 215 218 222 223 226 229 228 224 224 227 227 225 224 227 231 235 236 235 236 237 237 236 235 236 233 226 223 224 225 222 219
157 170 170 172 180 184 191 198 198 200 202 203 203 205 206 206 204 204 203 200 198 200 203 202 201 205 211 214 213 212 214 214 215 219 223 224 226 228 227 222 220 225 228 227 226 226 231 235 236 236 237 237 237 236 236 237 236 231 226 224 224 222 220
160 169 172 172 179 183 188 197 201 201 201 202 202 204 206 206 204 204 204 202 199 200 201 201 200 202 207 212 212 213 216 216 216 220 223 225 226 225 223 220 218 221 225 228 227 226 232 237 237 238 239 238 237 237 237 237 236 233 228 225 224 222 221
164 164 171 172 175 181 187 195 200 200 200 201 201 202 205 205 205 205 205 204 200 200 201 200 200 201 204 207 209 211 216 218 219 221 222 226 227 224 222 220 219 220 222 225 226 226 232 240 242 242 242 240 238 237 236 234 233 232 228 225 223 223 223
166 157 161 169 176 183 188 193 197 196 198 201 200 201 204 205 204 206 206 205 202 200 200 201 200 201 203 205 206 210 215 218 219 221 222 224 226 225 223 221 220 221 223 225 227 226 228 235 240 241 241 240 237 234 232 231 232 231 229 225 224 225 225
198 187 165 174 183 187 191 193 195 197 198 201 202 202 204 205 204 204 205 205 203 200 200 201 200 200 202 204 205 208 214 216 217 219 220 220 223 225 224 222 220 221 223 225 228 227 224 226 231 235 238 239 235 230 227 228 231 233 230 228 229 230 226
212 200 183 189 189 190 197 196 194 199 199 201 205 204 205 206 205 204 203 204 203 201 200 201 200 199 201 203 204 207 211 215 216 217 217 217 220 223 223 221 219 220 222 223 227 229 226 224 228 232 235 238 235 228 226 231 237 237 233 232 234 233 227
213 195 183 191 195 192 197 197 196 200 202 205 207 206 206 207 206 203 201 202 203 200 200 202 200 198 200 202 203 205 209 214 215 215 215 216 217 220 221 220 219 220 221 221 225 230 229 226 228 230 232 233 231 228 229 235 241 240 237 237 237 231 226
221 209 191 194 203 203 198 197 199 201 203 207 208 208 209 208 207 205 202 202 201 198 198 202 201 198 198 200 201 203 207 212 212 212 213 214 216 217 218 219 219 220 222 221 223 227 228 227 227 229 230 228 228 229 229 233 240 241 240 240 235 227 224
228 228 213 198 200 205 200 195 199 203 205 208 210 211 210 207 208 207 204 202 199 196 197 200 199 196 196 197 199 202 205 208 208 209 210 211 213 213 213 216 218 219 220 219 221 226 229 229 228 229 230 228 229 229 228 235 245 245 243 241 233 226 223
238 234 230 208 196 198 198 196 198 203 208 210 210 209 206 205 207 206 203 202 198 194 197 199 196 194 195 196 198 201 203 204 205 207 207 208 210 210 211 214 217 219 219 218 220 226 230 229 228 229 231 231 229 229 232 241 247 247 247 245 234 227 222
249 244 241 230 210 199 197 201 205 207 211 210 204 203 204 204 204 202 202 202 197 193 196 196 194 193 194 196 198 199 200 201 202 202 204 205 206 206 209 213 217 219 219 218 219 225 229 230 229 231 233 231 229 230 235 240 242 246 251 245 231 223 219
257 256 253 248 243 233 219 215 214 213 213 208 200 200 202 201 200 199 199 198 194 192 193 194 193 193 194 195 196 196 197 198 199 199 201 202 202 203 208 213 217 219 219 218 217 220 226 229 231 235 236 230 226 230 236 238 239 245 249 237 221 215 217
256 259 259 254 254 251 234 218 212 211 212 210 204 200 199 197 196 197 196 194 191 189 190 192 191 191 191 192 193 194 194 195 196 197 198 199 199 200 204 208 212 215 217 220 218 220 224 225 227 231 229 224 226 231 234 236 236 239 240 227 214 214 223
246 248 250 249 251 250 234 214 208 208 207 205 201 197 196 195 194 195 194 191 188 187 187 188 189 190 190 189 189 190 189 189 191 193 195 195 193 193 196 198 200 205 213 218 218 222 228 227 226 229 228 229 235 235 233 236 235 235 236 230 222 224 231
247 242 238 239 245 244 227 209 204 201 198 199 199 195 193 191 190 193 193 188 184 184 184 184 185 187 186 182 179 180 180 182 186 188 188 187 184 186 192 195 196 203 212 216 216 221 229 230 230 233 235 237 237 230 229 237 239 237 239 238 234 233 231
268 262 244 239 241 229 205 193 192 194 195 199 197 191 188 188 188 190 190 184 180 181 182 183 180 177 175 171 170 172 173 178 184 184 183 183 184 189 196 198 201 209 213 215 216 218 221 223 225 226 226 229 228 221 221 228 233 234 236 237 234 229 223
261 295 274 244 225 204 190 182 182 190 194 193 190 187 185 184 185 187 186 182 179 178 178 177 173 169 167 165 163 164 167 172 176 177 180 185 189 191 195 199 206 214 215 214 215 214 213 215 216 214 212 214 217 216 216 220 226 229 229 230 231 226 222
227 235 292 228 188 184 186 182 183 188 187 182 182 182 181 181 182 183 181 178 174 171 169 167 166 164 163 161 160 160 163 167 170 174 181 189 193 193 196 203 212 218 217 213 208 204 207 209 207 206 207 204 203 209 217 223 228 229 227 229 231 228 224
208 197 193 158 153 164 172 174 177 178 175 174 176 176 178 180 180 177 174 171 167 164 162 161 160 160 160 159 160 161 164 168 172 178 185 190 191 192 197 208 214 215 219 221 211 199 201 204 202 197 192 195 204 213 219 224 228 230 229 224 220 216 212
182 177 170 160 157 156 156 162 167 168 169 171 172 172 175 177 174 169 166 164 161 158 156 156 158 160 161 161 163 165 167 169 174 180 185 188 190 191 198 209 214 214 219 220 207 194 193 196 196 192 190 200 210 214 218 222 223 222 217 208 204 204 203
211 159 156 157 158 157 156 157 160 162 162 163 165 168 169 169 167 162 157 155 154 153 154 156 158 159 160 160 162 166 168 172 178 183 185 189 192 194 201 210 212 214 217 208 191 187 191 192 194 193 193 202 212 214 217 221 220 215 209 203 202 205 208
266 183 159 157 157 159 162 162 161 160 158 158 161 161 159 159 159 155 151 151 152 154 155 155 155 156 158 160 163 167 172 178 182 181 179 182 185 189 196 201 199 200 203 195 187 189 194 196 199 199 199 206 214 215 214 216 214 212 210 209 211 215 219
218 185 144 154 157 159 160 159 158 156 152 150 150 152 154 155 153 149 148 150 152 152 151 151 154 157 160 162 164 168 174 178 179 174 171 173 176 180 183 180 178 185 191 192 193 195 196 198 203 208 211 213 212 208 208 209 209 208 210 212 214 216 220
144 154 155 138 140 144 145 145 144 141 137 136 140 146 149 148 143 143 146 148 149 150 151 153 156 159 161 162 163 166 169 171 169 166 167 170 174 178 176 170 174 186 194 196 200 201 202 204 207 211 213 208 201 200 199 202 207 207 207 209 210 211 216
100 128 137 129 119 122 126 128 128 127 126 128 133 136 134 132 133 138 142 142 144 149 153 154 155 157 158 156 154 157 158 157 158 163 168 174 177 180 180 178 181 191 198 200 204 208 209 209 210 210 205 196 194 196 195 197 206 210 211 213 211 211 216
88 100 111 118 116 114 114 114 116 118 118 120 124 124 123 126 131 134 137 139 143 148 152 152 152 152 151 151 154 156 150 149 155 163 169 177 182 186 188 187 187 195 202 203 206 211 213 212 210 208 205 199 196 197 200 202 205 211 221 225 221 219 221
88 93 96 99 99 100 101 102 105 108 110 113 116 116 118 123 129 135 139 140 143 147 148 147 146 144 145 152 157 146 141 153 166 171 174 181 187 192 196 196 194 199 205 207 209 211 211 212 211 209 210 207 199 196 204 211 212 216 223 225 223 228 231